weather.gov     
National Weather Service

Regional Weather Roundup
NWS Homepage
This page is being discontinued on March 12, 2014.
The same data is available at this site. Please update your bookmarks.
Thank you, and we apologize for the inconvenience.
Please send an email to SR-SRH.Webmaster@noaa.gov with any concerns.


Current Version
Previous Version:    01  02  03  04  05  06  07  08  09  10  11  12  13  14  15  16  17  18  19  20  21  22  23  24  25  26  
[Printable]
342
ASUS45 KGGW 250415
RWRGGW
HOURLY WEATHER ROUNDUP FOR NORTHEAST MONTANA
NATIONAL WEATHER SERVICE GLASGOW MONTANA
1000 PM MDT FRI OCT 24 2014

NOTE: "FAIR" INDICATES FEW OR NO CLOUDS BELOW 12,000 FEET WITH NO
SIGNIFICANT WEATHER AND/OR OBSTRUCTIONS TO VISISBILITY.

NORTHEAST MONTANA


CITY           SKY/WX    TMP DP  RH WIND       PRES   REMARKS
GLASGOW        PTCLDY    46  28  49 W6        30.06R
PLENTYWOOD       N/A     42  27  55 W6          N/A
WOLF POINT     PTCLDY    40  28  62 CALM      30.08R
JORDAN           N/A     43  33  68 NW5       30.09R
WINNETT          N/A     52  38  58 W3          N/A
SIDNEY         MOCLDY    46  30  53 CALM      30.09S
GLENDIVE       CLOUDY    45  32  61 W8        30.11R
MALTA            N/A     43  33  68 S3          N/A
SCOBEY           N/A     37  20  50 CALM      30.03

FORT PECK REPORTS


CITY           SKY/WX    TMP DP  RH WIND       PRES   REMARKS
FORT PECK        N/A     51  32  48 SW5         N/A
THE PINES        N/A     49  28  44 SW6         N/A

SOUTHEAST MONTANA


CITY           SKY/WX    TMP DP  RH WIND       PRES   REMARKS
BILLINGS       PTCLDY    49  35  58 N5        30.10S
MILES CITY     CLOUDY    53  33  46 CALM      30.09S
BAKER          CLOUDY    48  30  49 CALM      30.12R
LIVINGSTON     CLEAR     44  37  76 E6        30.09R

CENTRAL MONTANA


CITY           SKY/WX    TMP DP  RH WIND       PRES   REMARKS
HAVRE          MOCLDY    41  31  67 S10       30.07S
LEWISTOWN      LGT RAIN  47  42  83 S8        30.11S
GREAT FALLS    LGT RAIN  48  37  65 E7        30.07R
CUT BANK       CLOUDY    44  32  62 N6        30.06R
HELENA         MOCLDY    48  41  76 SW6       30.08S
BUTTE          CLEAR     37  36  96 S6        30.11S
BOZEMAN        CLEAR     39  38  96 S3        30.10S

WESTERN MONTANA


CITY           SKY/WX    TMP DP  RH WIND       PRES   REMARKS
MISSOULA       MOCLDY    44  44 100 NW5       30.08F
KALISPELL      NOT AVBL

NORTH DAKOTA


CITY           SKY/WX    TMP DP  RH WIND       PRES   REMARKS
WILLISTON      PTCLDY    45  26  47 W12       30.05R
DICKINSON      CLOUDY    45  32  60 W6        30.06R
MINOT          CLEAR     47  29  49 SW9       29.99R
BISMARCK       PTCLDY    48  32  53 W12       30.05R

SOUTHERN SASKATCHEWAN


CITY           SKY/WX    TMP DP  RH WIND       PRES   REMARKS
REGINA         CLEAR     36  32  87 W10       29.99R
ESTEVAN        CLEAR     39  30  70 W10       30.00R
SWIFT CURRENT  CLEAR     36  28  75 SW10      30.01R





U.S. Dept. of Commerce
NOAA National Weather Service
1325 East West Highway
Silver Spring, MD 20910
E-mail: w-nws.webmaster@noaa.gov
Page last modified: May 16, 2007
NATIONAL WEATHER SERVICE: for Safety, for Work, for Fun - FOR LIFE